Regional Weather Roundup
Issued by NWS

Home | Current Version | Previous Version | Text Only | Print | Product List | Glossary On
Versions: 1 2 3 4 5 6 7 8 9 10 11 12 13 14 15 16 17 18 19 20 21 22 23 24 25 26 27 28 29 30 31 32 33 34 35 36 37 38 39 40 41 42 43 44 45 46 47 48 49 50
000
ASUS43 KDTX 200410
RWRMI
MICHIGAN HOURLY REGIONAL WEATHER ROUNDUP
NATIONAL WEATHER SERVICE DETROIT/PONTIAC MI
1100 PM EST FRI DEC 19 2014

NOTE: "FAIR" INDICATES FEW OR NO CLOUDS BELOW 12,000 FEET WITH NO
SIGNIFICANT WEATHER AND/OR OBSTRUCTION TO VISIBILITY.

MIZ047>049-052>055-059>063-066>070-074>076-081>083-200500-
SOUTHEAST LOWER MICHIGAN

CITY           SKY/WX    TMP DP  RH WIND       PRES   REMARKS
ADRIAN         CLOUDY    29  23  78 E3        30.28S
ALMA           CLEAR     19  19  98 CALM      30.26F
ANN ARBOR      CLOUDY    26  21  81 CALM      30.27S
BAD AXE        CLEAR     15  15  97 CALM      30.29F
DETROIT CITY   CLEAR     26  18  71 N3        30.28F
DETROIT        PTCLDY    23  19  85 CALM      30.30R
FLINT          CLEAR     20  16  84 SE3       30.27F
GROSSE ILE     CLOUDY    27  21  80 CALM      30.28R
HILLSDALE      CLEAR     23  22  95 CALM      30.25R FOG
HOWELL         CLEAR     19  18  97 CALM      30.25S

CITY           SKY/WX    TMP DP  RH WIND       PRES   REMARKS
JACKSON        MOCLDY    22  19  89 CALM      30.26R
LAMBERTVILLE   CLOUDY    32  27  80 CALM      30.28S
LANSING        CLEAR     20  17  88 CALM      30.27S
LAPEER         NOT AVBL
MASON          CLEAR     22  20  91 CALM      30.26R
MONROE         CLOUDY    28  25  86 CALM      30.28R
MT. CLEMENS    CLEAR     24  22  93 NW2       30.26F
PONTIAC        CLEAR     20  18  92 CALM      30.25F
PORT HOPE        N/A     24  19  81 SW5       30.29S
PORT HURON     CLEAR     21  19  93 CALM      30.28F
TRI CITIES     CLEAR     23  18  81 CALM      30.28F
YPSILANTI      CLEAR     24  18  77 CALM      30.29R
$$
MIZ043>046-050>051-056>058-064>065-071>073-077>080-200500-
SOUTHWEST LOWER MICHIGAN

CITY           SKY/WX    TMP DP  RH WIND       PRES   REMARKS
BATTLE CREEK   CLEAR     20  16  84 CALM      30.27R
BENTON HARBOR  CLOUDY    28  20  71 CALM      30.27S
BIG RAPIDS     CLEAR     18  17  95 CALM      30.24S
COLDWATER      CLEAR     19  17  94 CALM      30.26S FOG
HOLLAND        CLEAR     22  18  85 CALM      30.27S
GRAND RAPIDS   PTCLDY    21  17  84 S3        30.26S
KALAMAZOO      CLEAR     23  19  85 SE3       30.26S
MARSHALL       CLEAR     19  17  93 CALM      30.26R
MUSKEGON       PTCLDY    25  18  74 CALM      30.28R
$$
MIZ016>042-200500-
NORTHERN LOWER MICHIGAN

CITY           SKY/WX    TMP DP  RH WIND       PRES   REMARKS
ALPENA         CLEAR     12   9  87 CALM      30.30S
BEAVER ISLAND  MOCLDY    12  10  92 CALM      30.28F
BELLAIRE       CLOUDY    26  23  89 CALM      30.29F
CADILLAC       CLEAR     11   8  89 CALM      30.22F
CHARLEVOIX     CLOUDY    24  22  91 CALM      30.30F
FRANKFORT      CLOUDY    29  25  88 CALM      30.26F
GAYLORD        PTCLDY    10   8  92 CALM      30.24F
GRAYLING       CLEAR      6   3  88 CALM      30.26F
HARBOR SPRINGS CLOUDY    16  13  90 NE5       30.28F
HOUGHTON LAKE  CLEAR     10   7  87 CALM      30.25F
MANISTEE       CLOUDY    27  19  74 CALM      30.27S
OSCODA         CLEAR     10   7  91 CALM      30.29F
PELLSTON       CLEAR      5   0  79 CALM      30.29F
TRAVERSE CITY  CLOUDY    28  21  75 CALM      30.27F
$$
MIZ007>008-015-200500-
EASTERN UPPER MICHIGAN

CITY           SKY/WX    TMP DP  RH WIND       PRES   REMARKS
KINROSS        PTCLDY    10   9  92 CALM      30.28F
MACKINAC ISLAN CLEAR     17  17  97 CALM      30.28S
NEWBERRY       CLOUDY    21  20  96 CALM      30.26F
S. S. MARIE    PTCLDY    17  11  77 CALM      30.32R
$$
MIZ004>006-011>014-085-200500-
CENTRAL UPPER MICHIGAN

CITY           SKY/WX    TMP DP  RH WIND       PRES   REMARKS
MANISTIQUE     CLOUDY    26  22  83 W3        30.28S
ESCANABA       CLOUDY    18  14  86 CALM      30.27F
MENOMINEE      CLEAR     18  16  93 CALM      30.25F
SAWYER-GWINN   CLEAR     19  17  92 CALM      30.23F
$$
MIZ001>003-009>011-084-200500-
WESTERN UPPER MICHIGAN

CITY           SKY/WX    TMP DP  RH WIND       PRES   REMARKS
IRON MOUNTAIN  CLOUDY    14  11  87 CALM      30.22S
HOUGHTON       CLOUDY    24  18  77 S6        30.21F
COPPER HARBOR    N/A     27  23  85 CALM      30.24S
IRONWOOD       CLOUDY    23  21  93 CALM      30.16F
$$

ABBREVIATIONS USED IN REMARKS
   TC - TEMPERATURE IN CELSIUS
  WCI - WIND CHILL INDEX
   HX - HEAT INDEX
  VSB - VISIBILITY



USA.gov is the U.S. government's official web portal to all federal, state and local government web resources and services.